User: anonymous   Login
Location: Unspecified
(0.0000°N, 0.0000°E)
Time: 13:47:45
(UTC+00:00)
Language:

Tiungsat 1 - Orbit

View from above orbital plane
View from above orbital plane
View from above satellite
View from above satellite

Ground track
Ground track

The orbit data is extracted from the following two-line orbital elements,

1 26548U 00057D   17111.67562791 +.00000214 +00000-0 +39128-4 0  9995
2 26548 064.5507 177.0944 0038745 233.2120 126.5431 14.88980652897485
Epoch (UTC): 21 April 2017 16:12:54
Eccentricity: 0.0038745
inclination: 64.5507°
perigee height: 574 km
apogee height: 628 km
right ascension of ascending node: 177.0944°
argument of perigee: 233.2120°
revolutions per day: 14.88980652
mean anomaly at epoch: 126.5431°
orbit number at epoch: 89748

The dashed part of the orbit path shows where the satellite is in the earth's shadow,  

DLR